Date,TemperatureHighF,TemperatureAvgF,TemperatureLowF,DewpointHighF,DewpointAvgF,DewpointLowF,HumidityHigh,HumidityAvg,HumidityLow,PressureMaxIn,PressureMinIn,WindSpeedMaxMPH,WindSpeedAvgMPH,GustSpeedMaxMPH,PrecipitationSumIn
2013-1-1,32.0,29.7,23.0,31.0,26.9,14.0,100,90,73,30.06,29.94,5,2,8,0.00
2013-1-2,29.0,21.3,16.0,14.0,10.4,6.0,73,63,49,30.21,30.03,6,1,9,0.00
2013-1-3,34.0,22.1,8.0,18.0,11.6,3.0,89,65,50,30.21,30.09,7,2,15,0.04
2013-1-4,34.0,28.6,27.0,20.0,17.4,15.0,71,63,49,30.21,30.12,6,3,13,0.04
2013-1-5,37.0,29.4,25.0,23.0,18.3,13.0,72,63,51,30.35,30.15,5,2,13,0.04
2013-1-6,39.0,34.7,31.0,29.0,24.4,22.0,78,66,57,30.15,29.97,5,2,10,0.08
2013-1-7,22.0,20.9,20.0,18.0,17.0,16.0,87,85,82,30.32,30.27,2,0,3,0.08
2013-1-8,46.0,29.0,16.0,29.0,21.4,14.0,98,76,46,30.32,30.24,5,1,8,0.04
2013-1-9,46.0,35.5,23.0,42.0,31.6,20.0,99,86,59,30.41,30.21,5,1,9,0.04
2013-1-10,38.0,38.0,38.0,34.0,34.0,34.0,85,85,85,30.41,30.41,1,1,0,0.04
2013-1-11,53.0,44.2,38.0,53.0,41.4,34.0,99,90,59,30.41,29.97,5,1,8,0.21
2013-1-12,64.0,53.1,45.0,59.0,51.2,45.0,100,94,69,30.09,30.00,4,0,10,0.04
2013-1-13,67.0,59.3,51.0,57.0,52.3,50.0,100,80,56,30.00,29.88,7,2,15,0.12
2013-1-14,57.0,40.2,31.0,57.0,32.5,21.0,100,75,54,30.35,29.91,8,2,15,0.20
2013-1-15,32.0,29.4,26.0,30.0,22.2,20.0,100,75,64,30.35,30.06,7,3,10,0.00
2013-1-16,34.0,32.7,30.0,34.0,32.3,29.0,100,99,91,30.06,29.88,4,2,8,0.24
2013-1-17,33.0,32.0,32.0,30.0,26.4,26.0,90,79,77,30.03,30.00,4,3,6,0.04
2013-1-18,32.0,32.0,32.0,26.0,26.0,26.0,78,78,78,30.03,30.03,3,3,3,0.00
2013-1-19,52.0,36.8,32.0,26.0,24.6,20.0,78,65,34,30.03,29.85,5,3,12,0.00
2013-1-20,46.0,36.3,23.0,28.0,17.0,8.0,56,45,37,30.12,29.79,9,4,20,0.00
2013-1-21,26.0,22.0,14.0,19.0,10.5,0.0,80,61,50,30.09,29.88,7,3,17,0.00
2013-1-22,11.0,8.8,8.0,-3.0,-5.2,-6.0,52,52,52,30.24,30.18,5,2,12,0.00
2013-1-23,15.0,10.5,4.0,4.0,-3.2,-10.0,67,53,48,30.27,30.03,6,2,15,0.00
2013-1-24,22.0,14.6,9.0,10.0,3.0,-8.0,89,61,41,30.50,30.03,8,2,13,0.00
2013-1-25,18.0,14.0,9.0,16.0,5.0,-8.0,92,70,46,30.47,30.00,5,2,8,0.00
2013-1-26,27.0,21.4,13.0,23.0,17.4,6.0,96,85,68,30.41,30.06,0,0,0,0.00
2013-1-27,32.0,21.2,8.0,17.0,11.3,5.0,99,67,48,30.50,30.29,0,0,0,0.00
2013-1-28,49.0,39.7,30.0,49.0,38.1,17.0,100,94,58,30.29,30.03,0,0,0,0.61
2013-1-29,64.0,53.3,47.0,56.0,50.2,47.0,100,90,65,30.06,29.85,0,0,0,0.08
2013-1-30,69.0,56.8,50.0,58.0,52.1,47.0,100,86,51,29.85,29.32,0,0,0,0.74
2013-1-31,50.0,26.7,22.0,48.0,15.8,9.0,94,64,50,29.85,29.32,0,0,0,0.53
2013-2-1,22.0,15.4,10.0,19.0,4.1,-3.0,88,61,52,30.29,29.82,0,0,0,0.00
2013-2-2,23.0,17.2,7.0,22.0,9.2,-6.0,97,71,54,30.29,29.97,5,0,6,0.00
2013-2-3,27.0,22.5,18.0,24.0,19.3,9.0,99,88,68,30.00,29.79,6,2,14,0.00
2013-2-4,29.0,21.6,17.0,26.0,15.2,8.0,100,77,52,30.06,29.85,4,2,14,0.00
2013-2-5,31.0,28.7,26.0,31.0,27.9,25.0,100,97,81,29.94,29.82,3,1,7,0.00
2013-2-6,32.0,26.7,17.0,28.0,20.7,12.0,100,79,53,30.32,29.91,5,2,8,0.00
2013-2-7,41.0,29.1,16.0,25.0,19.8,12.0,92,70,50,30.29,30.00,5,2,7,0.00
2013-2-8,40.0,33.1,26.0,38.0,27.2,19.0,100,79,66,30.09,29.79,9,3,20,0.00
2013-2-9,33.0,24.9,19.0,19.0,13.9,10.0,79,63,47,30.35,30.09,7,3,12,0.00
2013-2-10,53.0,32.6,17.0,25.0,17.1,10.0,83,56,34,30.35,30.00,4,2,7,0.00
2013-2-11,62.0,48.5,38.0,47.0,34.4,22.0,100,63,32,30.00,29.67,12,4,23,0.00
2013-2-12,41.0,35.2,26.0,23.0,21.4,19.0,79,57,48,30.06,29.91,10,3,22,0.00
2013-2-13,40.0,30.3,22.0,32.0,24.3,18.0,100,80,48,29.94,29.67,5,1,5,0.00
2013-2-14,40.0,33.8,27.0,33.0,27.9,24.0,100,80,58,29.97,29.82,2,2,2,0.00
2013-2-15,40.0,34.7,28.0,33.0,27.3,22.0,100,75,51,30.03,29.91,2,2,2,0.00
2013-2-16,29.0,24.3,16.0,25.0,16.3,10.0,92,72,50,30.03,29.91,2,2,2,0.00
2013-2-17,24.0,18.6,15.0,17.0,10.4,1.0,90,71,50,30.24,29.88,2,2,2,0.00
2013-2-18,43.0,26.4,4.0,26.0,10.0,-9.0,75,50,39,30.27,29.91,2,2,2,0.00
2013-2-19,45.0,35.8,25.0,37.0,27.2,10.0,97,72,46,29.91,29.67,2,2,2,0.00
2013-2-20,25.0,19.8,18.0,18.0,9.9,5.0,87,65,51,30.18,29.91,2,2,2,0.00
2013-2-21,25.0,20.3,18.0,14.0,11.1,9.0,85,67,54,30.32,30.15,7,2,9,0.00
2013-2-22,37.0,30.0,19.0,33.0,22.4,11.0,100,74,49,30.27,30.00,2,1,2,0.00
2013-2-23,46.0,38.3,32.0,36.0,32.0,28.0,91,79,64,30.00,29.85,0,0,0,0.00
2013-2-24,43.0,33.5,26.0,33.0,23.6,17.0,75,67,59,30.12,29.88,8,2,13,0.00
2013-2-25,41.0,30.9,21.0,26.0,19.5,16.0,96,65,44,30.21,30.06,6,1,10,0.00
2013-2-26,39.0,36.2,29.0,36.0,25.3,17.0,100,66,47,30.06,29.62,9,4,15,0.70
2013-2-27,43.0,38.2,34.0,40.0,35.8,32.0,100,92,70,29.70,29.59,2,2,6,0.45
2013-2-28,34.0,32.6,32.0,33.0,31.5,29.0,100,96,87,29.79,29.65,2,2,6,0.08
2013-3-1,32.0,29.8,25.0,32.0,24.4,18.0,99,80,65,29.97,29.79,2,2,6,0.00
2013-3-2,27.0,24.9,24.0,22.0,18.8,14.0,91,77,61,29.94,29.88,2,2,6,0.00
2013-3-3,28.0,24.7,22.0,23.0,18.1,13.0,91,76,60,30.00,29.88,2,2,6,0.00
2013-3-4,37.0,26.3,20.0,18.0,14.9,11.0,87,63,45,30.09,29.97,2,2,6,0.00
2013-3-5,46.0,31.8,19.0,20.0,16.4,14.0,84,56,35,30.09,29.70,2,2,6,0.00
2013-3-6,40.0,34.6,31.0,33.0,27.7,20.0,100,78,50,30.09,29.70,2,2,6,0.00
2013-3-7,41.0,35.2,32.0,31.0,26.4,22.0,91,71,48,30.27,30.09,6,2,13,0.00
2013-3-8,39.0,32.3,25.0,26.0,23.9,20.0,83,71,55,30.38,30.24,6,3,12,0.00
2013-3-9,56.0,36.2,21.0,30.0,23.6,19.0,100,65,34,30.38,30.18,5,1,6,0.00
2013-3-10,67.0,52.2,37.0,35.0,27.5,20.0,50,39,30,30.18,30.03,6,2,8,0.00
2013-3-11,62.0,54.7,49.0,49.0,32.7,27.0,93,44,32,30.03,29.73,9,2,24,0.00
2013-3-12,51.0,39.8,36.0,51.0,33.5,23.0,100,79,59,30.00,29.76,5,2,8,0.00
2013-3-13,37.0,31.6,26.0,32.0,24.1,13.0,98,75,48,30.09,29.91,5,5,7,0.00
2013-3-14,27.0,26.0,26.0,18.0,16.6,16.0,71,67,66,30.12,30.09,5,5,7,0.00
2013-3-15,48.0,39.9,24.0,33.0,24.1,16.0,73,54,45,30.06,29.82,0,0,7,0.00
2013-3-16,41.0,35.9,33.0,39.0,35.4,32.0,100,98,74,29.94,29.65,0,0,0,0.00
2013-3-17,35.0,31.9,28.0,32.0,21.3,17.0,93,66,50,30.18,29.94,0,0,0,0.00
2013-3-18,39.0,33.4,29.0,34.0,26.7,18.0,96,77,56,30.15,29.73,0,0,0,0.00
2013-3-19,46.0,38.2,30.0,41.0,26.0,13.0,100,65,36,29.97,29.70,0,0,0,0.00
2013-3-20,39.0,31.6,26.0,18.0,14.6,11.0,60,49,40,29.97,29.79,0,0,0,0.00
2013-3-21,27.0,23.5,17.0,18.0,10.5,5.0,88,58,43,29.88,29.82,0,0,0,0.00
2013-3-22,33.0,27.4,23.0,21.0,16.0,13.0,83,62,49,30.03,29.88,8,2,13,0.00
2013-3-23,45.0,31.0,17.0,22.0,17.5,12.0,96,60,37,30.03,29.97,6,2,15,0.00
2013-3-24,41.0,32.4,26.0,29.0,20.0,16.0,89,61,42,30.03,29.56,9,3,13,0.00
2013-3-25,38.0,32.9,30.0,35.0,31.4,25.0,100,95,68,29.73,29.50,5,1,15,0.21
2013-3-26,43.0,35.2,29.0,35.0,29.3,25.0,100,81,49,30.06,29.73,6,2,10,0.59
2013-3-27,41.0,35.0,31.0,33.0,28.5,21.0,100,80,46,30.15,30.03,7,2,10,0.09
2013-3-28,41.0,36.3,32.0,34.0,28.1,25.0,100,73,55,30.27,30.09,7,2,8,0.04
2013-3-29,52.0,41.1,34.0,31.0,26.4,19.0,87,60,35,30.24,30.15,6,1,15,0.04
2013-3-30,54.0,40.3,25.0,26.0,21.5,18.0,85,49,33,30.24,30.03,5,1,9,0.00
2013-3-31,49.0,44.1,38.0,47.0,33.6,-99.9,100,71,45,30.03,29.73,6,1,9,0.08
2013-4-1,45.0,40.1,31.0,44.0,28.5,11.0,100,66,36,30.00,29.73,7,3,21,0.08
2013-4-2,38.0,31.3,26.0,20.0,13.5,9.0,74,48,37,30.18,30.00,7,2,20,0.04
2013-4-3,39.0,29.7,21.0,18.0,11.9,7.0,68,48,37,30.38,30.15,8,3,18,0.00
2013-4-4,54.0,35.6,17.0,21.0,13.9,6.0,66,43,26,30.35,29.97,6,2,9,0.00
2013-4-5,55.0,41.6,27.0,29.0,20.6,14.0,70,44,34,30.15,29.94,9,2,18,0.00
2013-4-6,60.0,41.5,23.0,23.0,18.8,13.0,83,43,24,30.27,30.06,6,2,13,0.00
2013-4-7,71.0,60.4,50.0,45.0,33.8,21.0,63,38,31,30.06,29.91,9,3,15,0.00
2013-4-8,74.0,61.4,46.0,46.0,41.3,36.0,87,51,31,30.06,29.94,8,2,13,0.00
2013-4-9,79.0,68.4,55.0,52.0,47.9,43.0,81,49,34,30.12,29.94,5,2,13,0.00
2013-4-10,80.0,68.3,59.0,60.0,52.8,46.0,100,59,39,30.00,29.82,7,2,15,0.42
2013-4-11,75.0,63.9,53.0,60.0,54.9,51.0,99,76,45,29.91,29.65,9,2,15,0.42
2013-4-12,66.0,58.8,45.0,60.0,48.7,30.0,100,71,44,29.88,29.59,8,4,22,0.48
2013-4-13,55.0,45.8,38.0,33.0,29.7,27.0,72,54,40,30.00,29.85,8,3,17,0.04
2013-4-14,61.0,47.3,31.0,33.0,28.4,22.0,81,50,34,30.18,30.00,5,2,9,0.00
2013-4-15,65.0,59.9,53.0,45.0,40.2,33.0,60,48,42,30.12,30.00,7,3,15,0.00
2013-4-16,79.0,64.5,52.0,58.0,50.7,45.0,100,64,39,30.24,30.06,7,2,17,0.66
2013-4-17,67.0,58.4,52.0,58.0,52.6,47.0,100,83,54,30.27,30.12,5,2,8,0.66
2013-4-18,83.0,71.4,59.0,60.0,53.7,49.0,86,57,35,30.15,29.85,7,4,17,0.00
2013-4-19,72.0,60.4,44.0,58.0,46.1,27.0,91,60,49,29.88,29.56,8,4,20,0.08
2013-4-20,47.0,40.9,34.0,30.0,23.5,17.0,77,51,38,30.35,29.88,7,4,18,0.04
2013-4-21,53.0,39.3,27.0,25.0,20.8,18.0,77,49,33,30.56,30.35,7,3,14,0.00
2013-4-22,60.0,50.2,42.0,30.0,24.4,19.0,43,37,27,30.47,30.29,9,3,15,0.00
2013-4-23,70.0,53.8,36.0,37.0,31.8,25.0,81,46,27,30.29,30.00,4,1,9,0.00
2013-4-24,71.0,55.7,40.0,59.0,42.2,31.0,97,62,41,30.15,29.79,8,3,22,0.08
2013-4-25,58.0,45.7,34.0,36.0,29.7,25.0,91,57,33,30.35,30.15,7,3,14,0.04
2013-4-26,59.0,47.6,35.0,38.0,30.5,25.0,100,56,33,30.47,30.35,6,2,12,0.00
2013-4-27,72.0,55.9,38.0,38.0,31.1,24.0,63,41,26,30.38,30.18,8,2,15,0.00
2013-4-28,60.0,54.9,49.0,54.0,43.0,-99.9,95,68,39,30.18,30.00,6,2,13,0.12
2013-4-29,64.0,57.7,53.0,58.0,50.8,45.0,100,78,56,30.06,29.97,6,2,9,0.04
2013-4-30,70.0,60.1,52.0,56.0,49.4,45.0,100,71,43,30.24,30.06,6,2,13,0.04
2013-5-1,75.0,62.7,49.0,49.0,42.0,30.0,90,51,27,30.32,30.21,6,2,12,0.00
2013-5-2,75.0,61.9,47.0,38.0,34.1,30.0,59,37,23,30.35,30.24,6,2,14,0.00
2013-5-3,71.0,61.3,48.0,39.0,35.4,29.0,55,39,28,30.27,30.18,8,3,16,0.00
2013-5-4,70.0,59.0,47.0,40.0,36.1,30.0,56,43,32,30.24,30.12,7,3,15,0.00
2013-5-5,72.0,59.3,46.0,39.0,34.1,28.0,72,42,24,30.18,30.06,7,3,15,0.00
2013-5-6,68.0,58.4,46.0,52.0,42.0,31.0,75,55,39,30.12,30.03,7,3,14,0.00
2013-5-7,67.0,60.6,55.0,55.0,52.3,48.0,98,75,51,30.06,29.97,7,3,13,0.00
2013-5-8,71.0,60.9,51.0,58.0,50.2,40.0,100,72,34,30.03,29.91,7,2,15,0.20
2013-5-9,74.0,61.1,52.0,59.0,52.3,47.0,100,77,39,30.03,29.94,5,1,12,0.12
2013-5-10,76.0,60.7,54.0,62.0,54.4,-99.9,100,86,50,30.03,29.85,6,1,20,0.20
2013-5-11,61.0,56.9,52.0,61.0,55.2,47.0,100,94,80,29.88,29.82,5,2,8,0.52
2013-5-12,52.0,47.4,39.0,49.0,29.6,-99.9,94,54,36,30.06,29.85,6,3,18,0.04
2013-5-13,51.0,43.1,32.0,30.0,24.4,20.0,88,49,35,30.18,30.06,6,2,13,0.00
2013-5-14,58.0,45.5,29.0,38.0,30.3,23.0,93,58,39,30.18,29.94,5,1,10,0.00
2013-5-15,86.0,67.0,49.0,57.0,50.1,37.0,92,57,34,29.94,29.76,7,2,16,0.00
2013-5-16,78.0,62.9,59.0,64.0,33.8,-99.9,100,63,30,30.00,29.82,6,1,10,0.39
2013-5-17,80.0,66.2,57.0,62.0,47.5,-99.9,100,67,30,30.12,30.00,5,1,12,0.04
2013-5-18,80.0,67.5,55.0,58.0,51.7,44.0,80,59,37,30.18,30.06,6,2,12,0.00
2013-5-19,76.0,66.7,57.0,64.0,57.8,56.0,100,75,52,30.15,30.03,5,2,10,0.00
2013-5-20,85.0,71.7,60.0,66.0,60.9,58.0,100,73,42,30.09,29.97,4,1,8,0.00
2013-5-21,87.0,75.2,63.0,68.0,62.9,59.0,100,69,40,30.03,29.88,5,2,12,0.00
2013-5-22,87.0,72.5,63.0,63.0,60.0,55.0,99,69,37,29.94,29.82,5,2,10,0.12
2013-5-23,75.0,64.1,58.0,66.0,61.4,53.0,100,92,53,29.91,29.82,7,1,14,0.67
2013-5-24,57.0,44.9,40.0,57.0,37.3,27.0,100,77,50,30.27,29.88,9,3,20,0.33
2013-5-25,61.0,47.3,35.0,35.0,31.5,28.0,92,58,33,30.29,30.21,7,3,13,0.04
2013-5-26,66.0,51.4,35.0,39.0,32.6,29.0,99,52,31,30.29,30.21,7,2,15,0.00
2013-5-27,63.0,53.4,39.0,48.0,39.4,31.0,93,61,39,30.29,30.15,5,1,8,0.00
2013-5-28,78.0,64.0,53.0,68.0,57.5,45.0,100,81,52,30.15,30.03,5,1,13,0.31
2013-5-29,86.0,73.6,62.0,61.0,57.0,52.0,91,59,37,30.12,30.06,6,2,13,0.04
2013-5-30,87.0,73.8,59.0,63.0,59.3,56.0,100,64,37,30.21,30.12,5,1,12,0.00
2013-5-31,88.0,74.8,61.0,66.0,59.9,56.0,100,64,36,30.15,30.03,5,1,9,0.00
2013-6-1,87.0,72.9,65.0,68.0,63.6,58.0,100,76,40,30.06,29.88,5,2,10,0.04
2013-6-2,80.0,72.5,68.0,68.0,59.0,-99.9,100,67,42,29.91,29.85,5,2,13,0.04
2013-6-3,67.0,62.2,55.0,65.0,54.6,36.0,97,77,53,30.06,29.91,5,2,10,0.04
2013-6-4,71.0,57.7,39.0,46.0,40.7,36.0,100,57,34,30.21,30.06,6,1,10,0.00
2013-6-5,82.0,65.8,51.0,55.0,49.5,44.0,81,58,38,30.15,29.97,6,2,10,0.00
2013-6-6,69.0,65.1,62.0,65.0,60.5,55.0,100,87,60,30.00,29.82,3,1,8,0.68
2013-6-7,67.0,63.4,60.0,64.0,61.8,56.0,100,94,85,29.88,29.76,3,1,9,0.24
2013-6-8,71.0,60.7,56.0,56.0,53.3,50.0,94,78,50,30.15,29.88,3,1,9,0.00
2013-6-9,76.0,67.9,54.0,63.0,56.6,53.0,100,71,50,30.21,30.06,6,2,12,0.00
2013-6-10,76.0,68.4,64.0,70.0,65.6,62.0,100,91,76,30.09,29.85,5,1,9,0.38
2013-6-11,76.0,68.1,64.0,68.0,63.0,58.0,100,86,55,29.94,29.82,4,2,8,0.20
2013-6-12,82.0,75.7,71.0,68.0,62.4,59.0,90,64,47,29.97,29.79,6,2,10,0.12
2013-6-13,71.0,66.8,63.0,70.0,62.1,56.0,98,85,74,29.82,29.62,6,2,25,1.28
2013-6-14,72.0,63.8,58.0,56.0,53.2,50.0,89,70,47,30.09,29.82,5,2,10,0.04
2013-6-15,75.0,63.2,51.0,57.0,50.4,44.0,100,68,33,30.15,30.03,6,1,9,0.00
2013-6-16,72.0,66.7,61.0,68.0,61.9,53.0,100,85,66,30.06,29.94,5,1,12,0.24
2013-6-17,76.0,70.7,66.0,67.0,63.2,59.0,99,78,57,30.03,29.94,5,1,9,0.04
2013-6-18,76.0,68.3,63.0,65.0,63.4,59.0,100,85,62,29.97,29.88,6,1,9,0.00
2013-6-19,75.0,64.9,56.0,65.0,50.2,41.0,100,64,31,30.18,29.97,7,3,14,0.00
2013-6-20,80.0,64.1,51.0,56.0,50.3,47.0,100,66,33,30.27,30.15,6,2,8,0.00
2013-6-22,87.0,82.3,74.0,66.0,61.6,59.0,68,50,40,30.24,30.09,5,2,14,0.00
2013-6-23,87.0,76.2,64.0,68.0,63.2,58.0,100,68,40,30.21,30.09,5,1,13,0.00
2013-6-24,87.0,76.6,65.0,69.0,64.0,60.0,100,69,42,30.18,30.06,5,1,9,0.00
2013-6-25,88.0,75.3,65.0,69.0,64.9,60.0,100,74,42,30.09,29.91,5,2,12,0.29
2013-6-26,81.0,71.3,64.0,71.0,66.7,61.0,99,87,53,30.03,29.88,5,1,17,1.70
2013-6-27,74.0,69.1,66.0,71.0,68.2,66.0,100,97,82,29.88,29.70,3,1,7,0.48
2013-6-28,75.0,66.7,62.0,71.0,65.2,60.0,100,95,76,29.70,29.56,6,1,13,0.41
2013-6-29,79.0,68.0,61.0,68.0,63.0,57.0,100,86,51,29.76,29.62,5,1,8,0.54
2013-6-30,84.0,70.6,60.0,69.0,63.3,60.0,100,80,47,29.91,29.73,6,2,16,0.09
2013-7-1,79.0,70.3,66.0,69.0,66.1,62.0,100,88,56,30.00,29.85,7,2,12,1.00
2013-7-2,84.0,73.6,66.0,73.0,66.9,61.0,100,82,49,30.09,30.00,3,1,8,1.08
2013-7-3,85.0,74.9,67.0,71.0,67.0,63.0,99,79,51,30.21,30.09,5,1,13,0.04
2013-7-4,87.0,75.0,69.0,71.0,67.5,61.0,100,81,45,30.27,30.15,5,1,13,0.50
2013-7-5,86.0,75.3,67.0,75.0,68.6,65.0,100,82,51,30.21,30.12,3,1,9,0.50
2013-7-6,86.0,75.2,69.0,73.0,68.5,64.0,100,83,48,30.21,30.06,3,1,8,0.00
2013-7-7,78.0,75.3,71.0,71.0,68.6,68.0,97,80,74,30.15,30.06,4,2,8,0.04
2013-7-8,82.0,72.6,70.0,72.0,68.5,63.0,100,88,55,30.18,30.09,6,1,8,0.08
2013-7-9,79.0,72.1,67.0,73.0,70.1,67.0,100,94,80,30.15,30.03,4,1,7,0.42
2013-7-10,85.0,73.3,65.0,78.0,65.9,-99.9,100,84,70,30.06,29.88,9,2,20,1.70
2013-7-11,76.0,67.8,63.0,65.0,61.8,55.0,100,84,51,30.03,29.91,5,1,9,0.37
2013-7-12,72.0,65.8,59.0,66.0,60.6,56.0,96,84,71,30.15,30.03,6,2,10,0.00
2013-7-13,81.0,72.2,63.0,67.0,63.7,61.0,100,76,54,30.27,30.12,6,2,8,0.00
2013-7-14,88.0,78.3,68.0,69.0,66.1,62.0,100,68,44,30.32,30.27,5,1,9,0.00
2013-7-15,90.0,78.0,67.0,71.0,66.8,63.0,100,72,42,30.38,30.27,3,0,6,0.00
2013-7-16,91.0,77.0,70.0,74.0,70.5,66.0,100,83,47,30.35,30.27,5,1,15,0.00
2013-7-17,76.0,72.2,71.0,72.0,71.6,71.0,100,98,88,30.35,30.21,2,0,6,0.00
2013-7-18,85.0,77.0,76.0,73.0,72.1,72.0,90,86,66,30.24,30.09,1,0,6,0.00
2013-7-19,86.0,79.5,73.0,78.0,74.6,68.0,100,86,73,30.09,29.94,5,1,14,0.00
2013-7-20,76.0,72.0,70.0,71.0,68.1,-99.9,99,90,75,29.97,29.91,6,1,8,0.00
2013-7-21,82.0,72.4,68.0,70.0,68.1,64.0,100,87,60,30.03,29.97,6,1,9,0.00
2013-7-22,81.0,70.1,65.0,73.0,66.1,60.0,100,87,67,30.00,29.82,7,1,9,0.99
2013-7-23,82.0,71.3,67.0,69.0,66.8,62.0,100,88,52,29.85,29.76,4,1,12,0.29
2013-7-24,81.0,63.1,60.0,62.0,53.9,52.0,80,72,53,30.03,29.97,3,2,7,0.04
2013-7-25,67.0,61.1,54.0,54.0,52.8,52.0,95,75,60,30.09,30.03,3,3,3,0.04
2013-7-26,67.0,67.0,67.0,53.0,53.0,53.0,60,60,60,30.09,30.09,3,3,3,0.00
2013-7-27,67.0,67.0,67.0,53.0,53.0,53.0,60,60,60,30.09,30.09,3,3,3,0.00
2013-7-28,67.0,64.4,58.0,55.0,53.3,52.0,88,68,58,30.06,29.97,5,2,10,0.54
2013-7-29,74.0,62.0,51.0,58.0,53.7,49.0,100,77,44,30.21,30.06,5,1,10,0.04
2013-7-30,77.0,64.3,53.0,61.0,55.1,52.0,100,76,45,30.27,30.18,5,1,7,0.00
2013-7-31,79.0,67.3,57.0,67.0,60.7,56.0,100,82,45,30.18,30.00,3,1,8,0.00
2013-8-1,80.0,69.6,64.0,69.0,63.3,57.0,100,83,49,30.00,29.91,4,1,9,0.08
2013-8-2,77.0,67.7,59.0,66.0,58.1,50.0,100,75,41,30.03,29.94,6,1,12,0.04
2013-8-3,73.0,66.9,60.0,68.0,64.4,59.0,100,92,74,30.03,29.97,3,0,7,0.33
2013-8-4,74.0,63.0,54.0,64.0,55.0,50.0,100,79,45,30.12,30.03,4,0,9,0.04
2013-8-5,73.0,62.3,51.0,59.0,53.4,48.0,100,76,41,30.15,30.06,1,0,5,0.04
2013-8-6,81.0,67.4,56.0,60.0,55.9,51.0,100,71,38,30.09,30.00,2,0,6,0.00
2013-8-7,85.0,70.7,63.0,71.0,65.0,58.0,100,84,54,30.06,29.97,2,0,15,0.00
2013-8-8,85.0,73.2,64.0,74.0,69.0,64.0,100,88,65,30.03,29.97,0,0,3,0.00
2013-8-9,77.0,72.3,67.0,76.0,71.0,66.0,100,96,80,30.06,29.94,0,0,3,0.00
2013-8-10,79.0,70.1,62.0,69.0,63.6,58.0,100,82,54,30.12,30.06,0,0,0,0.00
2013-8-11,83.0,70.5,60.0,69.0,64.3,60.0,100,83,50,30.18,30.06,2,0,5,0.16
2013-8-12,82.0,71.2,65.0,70.0,65.4,60.0,100,85,52,30.12,29.94,3,0,8,0.16
2013-8-13,78.0,67.7,58.0,70.0,59.8,-99.9,100,81,53,30.00,29.85,5,1,9,0.17
2013-8-14,67.0,55.1,49.0,54.0,45.8,-99.9,100,79,54,30.15,30.00,2,0,7,0.04
2013-8-15,73.0,53.2,47.0,57.0,33.5,-99.9,100,69,40,30.21,30.12,3,0,7,0.00
2013-8-16,78.0,63.1,52.0,57.0,48.3,-99.9,99,67,38,30.18,30.12,2,0,6,0.00
2013-8-17,77.0,65.3,56.0,59.0,53.9,49.0,99,70,38,30.27,30.18,4,0,12,0.00
2013-8-18,73.0,65.5,62.0,64.0,57.7,-99.9,93,79,62,30.27,30.18,2,0,5,0.00
2013-8-19,79.0,64.0,63.0,69.0,50.5,-99.9,100,88,61,30.18,30.09,0,0,3,0.12
2013-8-20,83.0,67.1,57.0,67.0,57.9,-99.9,100,80,41,30.24,30.15,0,0,0,0.04
2013-8-21,85.0,70.0,58.0,68.0,61.8,57.0,100,79,41,30.24,30.09,0,0,0,0.00
2013-8-22,82.0,70.3,65.0,72.0,67.6,63.0,100,92,63,30.15,30.03,3,0,9,0.16
2013-8-23,80.0,69.6,63.0,69.0,64.1,58.0,100,85,47,30.15,30.03,4,1,7,0.16
2013-8-24,80.0,68.0,58.0,61.0,56.4,53.0,95,69,40,30.32,30.15,5,1,8,0.00
2013-8-25,81.0,66.5,55.0,63.0,56.0,-99.9,100,74,44,30.38,30.27,5,0,7,0.00
2013-8-26,84.0,70.7,58.0,66.0,62.0,58.0,100,77,49,30.29,30.06,3,0,8,0.00
2013-8-27,79.0,72.5,69.0,72.0,69.2,66.0,98,90,79,30.06,29.97,0,0,3,0.08
2013-8-28,74.0,69.9,67.0,74.0,69.9,67.0,100,100,100,29.94,29.85,7,1,20,1.78
2013-8-29,83.0,73.3,67.0,73.0,68.6,66.0,100,87,58,30.09,29.94,5,1,8,0.13
2013-8-30,86.0,70.3,66.0,70.0,67.3,66.0,100,92,58,30.06,29.88,2,0,7,0.00
2013-8-31,85.0,74.6,68.0,74.0,69.5,66.0,100,86,56,29.91,29.82,3,1,8,0.00
2013-9-1,79.0,72.1,69.0,72.0,67.6,-99.9,100,89,73,29.91,29.82,3,1,6,0.00
2013-9-2,83.0,72.6,67.0,74.0,69.3,67.0,100,91,61,29.88,29.79,3,1,9,0.08
2013-9-3,72.0,65.0,58.0,67.0,58.8,51.0,100,82,50,30.06,29.88,6,2,12,0.04
2013-9-4,76.0,62.1,51.0,61.0,54.8,51.0,100,80,48,30.18,30.06,5,1,9,0.00
2013-9-5,74.0,64.1,57.0,63.0,53.7,44.0,100,73,43,30.24,30.09,6,2,13,0.00
2013-9-6,73.0,57.3,45.0,50.0,43.8,38.0,100,66,29,30.29,30.15,5,2,9,0.00
2013-9-7,75.0,62.3,46.0,56.0,48.1,45.0,100,66,38,30.15,30.06,4,2,8,0.00
2013-9-8,75.0,66.4,63.0,65.0,50.2,-99.9,78,65,60,30.06,28.79,5,2,6,0.00
2013-9-9,83.0,68.8,58.0,70.0,62.2,55.0,98,81,56,28.91,28.82,4,2,8,0.62
2013-9-10,89.0,76.6,67.0,74.0,70.4,66.0,98,84,58,28.94,28.85,6,1,10,0.04
2013-9-11,88.0,76.9,71.0,75.0,71.3,66.0,98,84,57,30.12,28.88,4,1,9,0.00
2013-9-12,78.0,71.1,63.0,72.0,68.2,62.0,97,91,67,30.06,29.86,5,1,14,0.58
2013-9-13,67.0,59.2,51.0,61.0,52.2,41.0,97,79,52,30.06,29.86,6,2,13,0.04
2013-9-14,66.0,54.4,49.0,48.0,43.1,37.0,91,69,35,30.18,30.06,6,2,8,0.04
2013-9-15,71.0,55.0,44.0,55.0,45.9,-99.9,97,77,43,30.21,30.09,4,1,8,0.00
2013-9-16,71.0,61.2,55.0,58.0,52.3,46.0,97,75,44,30.30,30.09,5,2,9,0.29
2013-9-17,71.0,56.0,46.0,49.0,43.3,35.0,96,67,28,30.42,30.27,7,2,13,0.04
2013-9-18,57.0,47.6,46.0,47.0,39.6,38.0,81,74,68,30.30,30.15,2,1,2,0.00
2013-9-19,77.0,64.8,57.0,64.0,57.2,50.0,99,78,47,30.18,30.06,5,1,8,0.00
2013-9-20,81.0,68.7,56.0,66.0,62.3,56.0,100,82,56,30.09,29.92,4,1,8,0.00
2013-9-21,72.0,63.6,60.0,68.0,62.6,59.0,100,97,80,29.92,29.74,6,1,13,0.79
2013-9-22,63.0,56.7,54.0,60.0,49.4,-99.9,100,81,49,30.03,29.83,6,2,10,0.04
2013-9-23,57.0,51.8,43.0,49.0,43.7,37.0,97,75,54,30.18,30.03,6,2,13,0.04
2013-9-24,70.0,51.6,39.0,53.0,43.5,39.0,100,79,36,30.15,30.01,5,2,8,0.00
2013-9-25,76.0,59.6,46.0,52.0,46.9,39.0,100,69,27,30.03,29.92,6,2,9,0.00
2013-9-26,76.0,60.8,49.0,53.0,48.9,41.0,99,71,30,30.09,29.98,5,2,10,0.00
2013-9-27,75.0,61.4,51.0,55.0,49.9,46.0,96,70,37,30.24,30.09,5,2,10,0.00
2013-9-28,73.0,60.9,51.0,59.0,50.2,45.0,100,71,43,30.30,30.18,5,2,13,0.00
2013-9-29,75.0,60.2,50.0,54.0,47.6,-99.9,90,68,41,30.18,30.03,3,1,9,0.00
2013-9-30,71.0,61.4,51.0,60.0,55.7,50.0,100,82,65,30.09,30.03,4,1,7,0.00
2013-10-1,66.0,61.9,59.0,60.0,56.8,56.0,92,84,72,30.09,30.06,0,0,0,0.00
2013-10-2,80.0,67.4,58.0,65.0,60.3,56.0,100,81,47,30.15,30.06,4,1,10,0.00
2013-10-3,79.0,68.7,59.0,67.0,62.3,59.0,100,82,56,30.15,30.06,5,1,10,0.04
2013-10-4,82.0,71.1,65.0,71.0,66.4,64.0,100,87,56,30.15,30.06,6,1,12,0.04
2013-10-5,72.0,66.8,65.0,70.0,66.4,65.0,100,99,89,30.12,30.09,2,0,6,0.00
2013-10-6,87.0,79.5,74.0,59.0,55.2,53.0,58,44,32,29.92,29.83,6,2,12,0.00
2013-10-7,74.0,58.8,48.0,58.0,48.6,38.0,100,71,47,30.15,29.74,6,2,16,0.29
2013-10-8,67.0,53.1,41.0,52.0,42.3,37.0,100,71,36,30.33,30.15,9,2,10,0.04
2013-10-9,67.0,54.6,45.0,47.0,40.4,32.0,94,64,28,30.33,30.27,6,2,10,0.00
2013-10-10,67.0,56.4,47.0,49.0,40.7,37.0,79,58,35,30.27,30.12,6,3,10,0.00
2013-10-11,58.0,55.4,52.0,58.0,53.0,47.0,100,92,75,30.12,30.09,6,3,10,0.69
2013-10-12,74.0,63.0,54.0,60.0,56.3,52.0,100,80,54,30.21,30.09,6,2,9,0.09
2013-10-13,71.0,62.3,59.0,61.0,54.5,-99.9,98,79,57,30.30,30.18,6,2,9,0.00
2013-10-14,63.0,59.8,57.0,60.0,58.0,56.0,100,94,84,30.33,30.24,5,2,8,0.00
2013-10-15,71.0,62.0,51.0,62.0,56.0,51.0,100,82,58,30.27,30.03,5,1,8,0.00
2013-10-16,66.0,59.8,55.0,62.0,57.0,52.0,97,90,83,30.03,29.92,3,1,7,0.08
2013-10-17,64.0,56.8,50.0,62.0,55.3,49.0,100,95,87,29.95,29.71,8,2,20,0.66
2013-10-18,63.0,52.0,43.0,50.0,41.5,35.0,99,71,36,30.06,29.92,6,2,12,0.04
2013-10-19,56.0,46.1,38.0,49.0,41.7,37.0,100,85,64,30.01,29.80,7,1,13,0.04
2013-10-20,59.0,46.4,37.0,44.0,35.5,-99.9,100,72,38,30.09,29.98,5,2,14,0.08
2013-10-21,67.0,49.9,36.0,46.0,34.6,29.0,100,63,26,30.09,29.89,6,1,12,0.04
2013-10-22,56.0,47.9,40.0,48.0,34.4,23.0,95,62,33,30.01,29.86,5,2,12,0.12
2013-10-23,43.0,40.8,37.0,40.0,36.7,33.0,94,85,74,29.95,29.77,3,1,10,0.12
2013-10-24,46.0,38.8,34.0,37.0,29.7,22.0,100,72,41,30.15,29.95,6,2,13,0.04
2013-10-25,48.0,41.0,34.0,35.0,28.4,24.0,94,63,41,30.33,30.15,5,2,10,0.00
2013-10-26,52.0,41.8,32.0,29.0,25.3,20.0,89,56,31,30.27,29.92,7,3,17,0.00
2013-10-27,47.0,37.4,34.0,30.0,25.2,-99.9,78,65,45,30.12,29.98,3,1,9,0.00
2013-10-28,60.0,41.9,30.0,39.0,28.9,-99.9,100,67,29,30.30,30.12,4,1,8,0.00
2013-10-29,61.0,46.7,34.0,40.0,34.2,31.0,99,65,33,30.39,30.27,3,1,8,0.00
2013-10-30,67.0,52.6,43.0,54.0,42.4,35.0,92,69,47,30.27,30.12,5,1,8,0.00
2013-10-31,68.0,60.6,56.0,61.0,55.9,53.0,100,86,59,30.15,29.59,7,2,16,0.12
2013-11-1,71.0,59.7,46.0,55.0,44.1,36.0,93,59,37,29.74,29.41,6,3,21,0.09
2013-11-2,53.0,49.2,45.0,43.0,40.9,36.0,88,73,53,29.95,29.71,4,2,10,0.04
2013-11-3,50.0,41.8,34.0,42.0,27.8,-99.9,88,61,39,30.45,29.95,7,3,12,0.04
2013-11-4,46.0,37.4,28.0,20.0,18.4,15.0,68,47,31,30.54,30.42,6,2,12,0.00
2013-11-5,58.0,45.1,36.0,28.0,24.6,22.0,60,45,30,30.51,30.36,5,1,8,0.00
2013-11-6,73.0,55.6,37.0,46.0,37.2,24.0,80,53,33,30.36,29.95,6,2,13,0.00
2013-11-7,63.0,47.6,40.0,58.0,38.6,20.0,99,73,42,30.15,29.89,8,3,23,0.61
2013-11-8,43.0,39.2,37.0,28.0,24.8,20.0,70,57,41,30.24,30.09,6,3,14,0.04
2013-11-9,56.0,47.9,26.0,29.0,19.2,-99.9,78,36,27,30.27,29.98,7,3,17,0.00
2013-11-10,54.0,45.9,36.0,33.0,26.4,22.0,59,47,30,30.27,29.98,7,3,17,0.00
2013-11-11,49.0,40.2,29.0,39.0,26.7,22.0,85,61,39,30.27,30.06,6,2,13,0.00
2013-11-12,40.0,31.0,28.0,36.0,23.2,13.0,100,75,42,30.42,30.06,8,2,16,0.08
2013-11-13,37.0,28.0,24.0,23.0,18.6,14.0,84,69,42,30.48,30.36,5,2,13,0.04
2013-11-14,36.0,30.0,29.0,19.0,17.7,15.0,65,60,43,30.36,30.18,4,2,13,0.00
2013-11-15,57.0,46.3,33.0,36.0,22.4,15.0,62,40,25,30.24,30.12,6,2,15,0.00
2013-11-16,62.0,49.9,38.0,47.0,38.2,-99.9,100,68,47,30.27,30.06,5,1,9,0.00
2013-11-17,63.0,57.7,50.0,61.0,53.3,43.0,96,86,71,30.06,29.59,7,2,15,0.57
2013-11-18,57.0,50.0,40.0,52.0,30.0,20.0,86,47,31,30.06,29.68,8,4,24,0.42
2013-11-19,39.0,36.9,35.0,22.0,20.8,19.0,55,52,47,30.27,30.06,7,2,14,0.00
2013-11-20,38.0,37.2,37.0,21.0,18.4,11.0,52,47,32,30.39,30.27,5,1,9,0.00
2013-11-21,52.0,39.9,31.0,34.0,22.6,10.0,58,50,34,30.45,30.24,3,1,6,0.00
2013-11-22,54.0,50.3,39.0,54.0,46.6,33.0,100,88,57,30.24,30.06,6,2,13,0.24
2013-11-23,38.0,31.6,21.0,32.0,19.8,-99.9,95,65,45,30.30,30.12,9,4,17,0.04
2013-11-24,24.0,19.9,15.0,10.0,6.6,4.0,67,56,44,30.48,30.30,8,4,16,0.00
2013-12-14,-200.0,0.0,200.0,-99.9,-99.9,-99.9,0,0,100,30.09,30.09,2,2,2,0.00
2013-12-15,27.0,25.7,25.0,14.0,10.9,9.0,58,53,49,30.01,29.95,2,2,2,0.00
2013-12-16,24.0,22.2,20.0,18.0,13.4,7.0,82,69,51,30.15,30.01,2,2,2,0.00
2013-12-17,24.0,24.0,24.0,18.0,18.0,18.0,78,78,78,30.03,29.95,2,2,2,0.04
2013-12-18,24.0,23.8,22.0,18.0,17.7,15.0,84,78,67,30.18,30.03,2,2,2,0.04
2013-12-19,44.0,35.7,22.0,30.0,25.6,18.0,83,68,58,30.09,30.06,1,0,1,0.04
2013-12-20,56.0,50.3,38.0,52.0,44.5,27.0,100,81,63,30.03,29.92,6,2,12,0.08